SCP
0 0 0 0 0 0 0 0 0 0 0 0 0 0 0 0 0 0 0 0 0 0 0 0 0 0 0 0 0 0 0 0 0 0 0 0 0 0 0 0 0 0 0 0
0 0 0 0 0 0 0 0 0 0 0 0 0 0 0 0 0 0 0 0 0 0 0 0 0 0 0 0 0 0 0 0 0 0 0 0 0 0 0 0 0 0 0 0
0 0 0 0 0 0 0 0 0 0 0 0 0 0 0 0 0 0 0 0 0 0 0 0 0 0 0 0 0 0 0 0 0 0 0 0 0 0 0 0 0 0 0 0
0 0 0 0 0 0 0 0 0 0 0 0 0 0 0 0 0 0 0 0 0 0 0 0 0 0 0 0 0 0 0 0 0 0 0 0 0 0 0 0 0 0 0 0
0 0 0 0 0 0 0 0 0 0 0 0 0 0 0 0 0 0 0 0 0 0 0 0 0 0 0 0 0 0 0 0 0 0 0 0 0 0 0 0 0 0 0 0
0 0 0 0 0 0 0 0 0 0 0 0 0 0 0 0 0 0 0 0 0 0 0 0 0 0 0 0 0 0 0 0 0 0 0 0 0 0 0 0 0 0 0 0
0 0 0 0 0 0 0 0 0 0 0 0 0 0 0 0 0 0 0 0 0 0 0 0 0 0 0 0 0 0 0 0 0 0 0 0 0 0 0 0 0 0 0 0
0 0 0 0 0 0 0 0 0 0 0 0 0 0 0 0 0 0 0 0 0 0 0 0 0 0 0 0 0 0 0 0 0 0 0 0 0 0 0 0 0 0 0 0
0 0 0 0 0 0 0 0 0 0 0 0 0 0 0 0 0 0 0 0 0 0 0 0 0 0 0 0 0 0 0 0 0 0 0 0 0 0 0 0 0 0 0 0
0 0 0 0 0 0 0 0 0 0 0 0 0 0 0 0 0 0 0 0 0 0 0 0 0 0 0 0 0 0 0 0 0 0 0 0 0 0 0 0 0 0 0 0
0 0 0 0 0 0 0 0 0 0 0 0 0 0 0 0 0 0 0 0 0 0 0 0 0 0 0 0 0 0 0 0 0 0 0 0 0 0 0 0 0 0 0 0
0 0 0 0 0 0 0 0 0 0 0 0 0 0 0 0 0 0 0 0 0 0 0 0 0 0 0 0 0 0 0 0 0 0 0 0 0 0 0 0 0 0 0 0
0 0 0 0 0 0 0 0 0 0 0 0 0 0 0 0 0 0 0 0 0 0 0 0 0 0 0 0 0 0 0 0 0 0 0 0 0 0 0 0 0 0 0 0
0 0 0 0 0 0 0 0 0 0 0 0 0 0 0 0 0 0 0 0 0 0 0 0 0 0 0 0 0 0 0 0 0 0 0 0 0 0 0 0 0 0 0 0
0 0 0 0 0 0 0 0 0 0 0 0 0 0 0 0 0 0 0 0 0 0 0 0 0 0 0 0 0 0 0 0 0 0 0 0 0 0 0 0 0 0 0 0
0 0 0 0 0 0 0 0 0 0 0 0 0 0 0 0 0 0 0 0 0 0 0 0 0 0 0 0 0 0 0 0 0 0 0 0 0 0 0 0 0 0 0 0
0 0 0 0 0 0 0 0 0 0 0 0 0 0 0 0 0 0 0 0 0 0 0 0 0 0 0 0 0 0 0 0 0 0 0 0 0 0 0 0 0 0 0 0
0 0 0 0 0 0 0 0 0 0 0 0 0 0 0 0 0 0 0 0 0 0 0 0 0 0 0 0 0 0 0 0 0 0 0 0 0 0 0 0 0 0 0 0
0 0 0 0 0 0 0 0 0 0 0 0 0 0 0 0 0 0 0 0 0 0 0 0 0 0 0 0 0 0 0 0 0 0 0 0 0 0 0 0 0 0 0 0
0 0 0 0 0 0 0 0 0 0 0 0 0 0 0 0 0 0 0 0 0 0 0 0 0 0 0 0 0 0 0 0 0 0 0 0 0 0 0 0 0 0 0 0
0 0 0 0 0 0 0 0 0 0 0 0 0 0 0 0 0 0 0 0 0 0 0 0 0 0 0 0 0 0 0 0 0 0 0 0 0 0 0 0 0 0 0 0
0 0 0 0 0 0 0 0 0 0 0 0 0 0 0 0 0 0 0 0 0 0 0 0 0 0 0 0 0 0 0 0 0 0 0 0 0 0 0 0 0 0 0 0
0 0 0 0 0 0 0 0 0 0 -0 0 0 0 0 0 0 0 0 0 0 0 0 0 0 0 0 0 0 0 0 0 0 0 0 0 0 0 0 0 0 0 0 0
0 0 0 0 0 0 0 0 0 -0 -0 0 0 0 0 0 0 0 0 0 0 0 0 0 0 0 0 0 0 0 0 0 0 0 0 0 0 0 0 0 0 0 0 0
0 0 0 0 0 0 0 0 0 -0 -0 -0 0 0 0 0 0 0 0 0 0 0 0 0 0 0 0 0 0 0 0 0 0 0 0 0 0 0 0 0 0 0 0 0
0 0 0 0 0 0 0 0 0 0 0 0 0 0 0 0 0 0 0 0 0 0 0 0 0 0 0 0 0 0 0 0 0 0 0 0 0 0 0 0 0 0 0 0
0 0 0 0 0 0 0 0 0 0 0 0 0 0 0 0 0 0 0 0 0 0 0 0 0 0 0 0 0 0 0 0 0 0 0 0 0 0 0 0 0 0 0 0
Wind_Speed
12 11 8 11 12 10 13 13 13 16 17 23 18 14 13 11 11 12 12 12 11 10 9 10 10 10 10 10 10 9 8 7 7 7 6 6 6 5 5 4 4 5 7 7
9 9 10 16 17 16 17 16 19 21 24 21 16 11 11 11 11 12 12 12 11 11 11 11 11 10 10 10 9 8 8 7 7 8 7 6 5 5 4 3 3 3 5 6
7 4 5 13 13 14 11 10 11 16 18 11 10 11 10 10 10 11 12 12 12 12 11 11 11 10 10 10 8 7 7 7 7 8 8 6 5 4 4 3 3 2 3 4
4 2 11 10 4 8 9 12 13 13 12 10 12 11 10 10 9 11 11 11 11 11 11 11 10 10 9 9 8 7 7 7 7 8 7 6 5 5 4 2 2 1 1 3
3 5 13 10 5 6 7 10 10 12 13 12 9 8 8 7 7 9 11 11 10 10 11 10 10 10 9 9 8 7 7 7 7 7 6 7 6 6 3 2 2 1 1 2
5 5 10 8 3 3 3 8 7 7 10 9 4 6 9 8 9 11 11 9 9 9 9 10 10 9 9 9 8 8 8 7 7 6 6 7 6 5 3 2 2 1 1 1
9 9 13 8 4 5 3 10 4 4 7 6 6 8 9 10 10 10 11 11 10 9 9 9 9 8 8 9 9 9 8 7 7 5 5 5 5 4 3 2 1 1 1 1
7 9 14 5 8 9 11 4 3 4 6 7 8 10 11 11 11 11 11 11 10 9 10 9 8 7 8 9 9 8 7 6 6 5 4 5 4 4 3 1 1 1 1 1
13 12 6 7 9 8 3 4 5 5 6 7 9 10 11 11 11 11 11 11 9 8 10 10 8 6 8 10 8 7 6 6 5 5 4 4 4 4 4 2 1 1 1 1
8 11 8 7 7 6 6 7 7 7 7 7 10 11 12 11 11 10 10 10 8 8 9 10 9 7 8 9 7 5 6 6 5 5 5 4 3 3 3 2 1 1 1 1
9 9 7 8 9 9 8 7 8 8 8 8 9 11 11 10 11 10 10 9 8 8 9 10 9 8 8 7 5 5 5 6 5 4 4 4 4 3 4 3 3 3 2 2
11 9 7 8 6 5 6 7 7 7 8 8 7 10 10 10 9 9 9 9 9 9 9 10 9 9 7 6 4 4 5 5 4 3 4 4 4 5 6 5 6 6 6 4
10 7 7 7 6 5 5 6 6 6 8 9 8 7 8 9 8 8 9 9 9 10 9 9 8 8 7 6 5 4 5 5 4 3 3 3 3 4 5 5 4 4 3 4
8 5 6 6 6 5 5 5 5 5 6 7 7 7 7 8 9 9 9 10 10 9 9 8 8 8 7 5 5 5 4 5 5 3 3 3 3 3 3 3 3 3 2 2
8 7 7 5 4 3 3 3 4 6 6 7 6 7 7 8 9 10 10 9 9 9 9 8 9 9 7 5 5 4 4 3 3 3 3 3 3 3 3 3 2 2 2 1
4 4 4 4 5 4 4 4 5 7 7 7 7 7 8 8 9 9 9 8 8 9 9 9 9 9 7 5 5 4 3 6 5 3 3 3 3 3 3 2 2 2 1 1
4 4 4 4 5 4 4 4 5 6 7 7 8 8 8 8 9 9 9 8 8 9 9 8 9 9 7 5 4 4 3 3 5 3 3 3 3 3 2 2 2 2 2 2
5 5 4 4 4 4 5 5 5 6 6 7 7 7 7 8 9 10 10 9 9 9 8 8 8 8 7 6 4 3 3 3 3 2 3 3 3 3 2 2 2 2 1 1
2 3 2 2 2 3 4 4 5 5 5 6 6 7 7 7 8 9 8 8 9 10 9 8 12 10 7 7 6 3 3 3 3 3 3 4 4 3 2 2 2 2 1 1
1 1 1 1 1 2 3 4 4 4 5 5 6 7 7 8 8 8 8 8 7 7 8 9 9 7 6 6 6 3 3 3 3 3 3 3 3 2 2 2 2 1 1 1
1 0 1 1 2 3 3 3 4 5 6 5 5 7 8 8 7 7 7 8 8 8 9 11 7 6 5 6 6 3 3 3 3 3 3 3 2 2 1 1 1 2 2 1
0 0 1 2 2 3 4 3 4 5 6 6 6 6 7 8 8 7 7 7 8 12 9 6 5 8 9 9 4 3 3 3 3 3 3 3 2 2 2 1 1 2 2 2
0 1 1 2 3 4 4 4 4 5 5 6 7 7 7 7 6 6 8 6 6 11 9 6 9 12 12 6 4 3 3 3 3 3 3 2 2 2 2 2 2 2 2 2
1 1 2 2 2 3 5 5 5 5 5 6 6 7 7 7 6 5 6 10 13 13 7 9 12 12 10 4 3 3 3 3 3 2 2 2 2 2 2 2 2 2 3 3
1 1 2 2 3 3 5 5 6 6 6 5 6 6 5 5 6 7 7 8 11 11 7 8 11 11 6 4 4 3 3 3 3 2 2 2 2 2 2 2 3 3 3 3
1 1 2 3 3 4 4 4 4 5 5 6 6 6 5 5 6 6 6 7 8 10 7 5 6 6 4 4 4 4 3 3 3 3 2 2 1 2 2 3 4 3 3 3
2 2 2 3 3 3 3 4 5 5 5 6 7 6 6 6 6 6 7 6 6 6 5 5 4 4 4 4 3 3 3 3 3 2 2 1 1 2 3 3 3 3 3 4
Wind_Direction
252 261 254 249 250 222 216 222 237 256 265 278 287 294 297 297 302 307 308 309 308 308 308 309 311 310 311 313 315 317 315 309 306 306 293 287 287 282 275 252 244 224 209 209
264 251 254 263 258 242 238 237 244 261 272 272 282 290 291 294 300 304 305 307 307 308 309 309 308 308 311 311 311 313 311 309 313 316 312 298 289 292 293 272 252 237 209 203
269 288 294 265 240 225 223 219 220 243 256 280 294 293 291 293 295 294 297 302 304 304 303 303 302 303 307 308 309 311 309 312 316 316 314 304 297 301 298 291 272 240 213 203
273 344 254 249 199 206 225 243 231 243 263 278 278 288 287 278 277 287 294 298 300 301 302 301 300 303 305 306 307 309 308 312 313 316 314 316 304 297 299 277 267 250 233 211
218 250 272 282 240 194 211 264 238 239 261 273 285 305 292 273 272 279 286 290 293 295 297 300 302 304 308 309 307 308 305 305 309 311 310 313 311 299 296 300 295 268 252 211
205 228 253 256 216 160 112 281 252 226 256 275 302 305 291 300 299 293 292 294 296 299 301 301 303 307 308 308 307 303 302 298 298 299 302 304 307 308 303 303 294 305 283 230
223 238 260 252 178 128 187 253 262 225 249 260 245 249 278 298 297 293 294 296 297 298 298 296 302 307 303 304 302 298 299 298 297 295 300 303 308 311 311 307 312 308 291 271
195 224 250 198 149 190 225 248 255 254 254 258 265 278 288 293 295 297 298 299 299 299 297 298 301 301 299 298 296 302 303 304 304 306 309 315 317 320 324 304 303 299 308 332
200 221 239 179 203 224 227 249 258 256 265 271 281 287 293 295 295 296 295 296 297 295 297 300 299 294 292 295 299 305 306 306 307 309 311 314 317 321 323 313 269 284 287 293
245 256 254 250 254 259 251 251 262 264 269 275 279 287 292 295 297 298 298 298 300 301 301 301 302 298 290 296 300 303 304 308 313 316 319 320 318 313 309 303 289 273 274 272
247 265 284 265 245 248 255 262 268 272 269 270 276 285 289 293 295 296 298 299 300 298 297 298 303 303 302 303 305 306 304 304 309 311 312 315 317 309 305 292 271 270 257 236
234 228 221 248 243 239 251 261 266 274 282 281 275 281 290 291 293 296 299 302 303 302 300 301 303 301 302 304 298 298 302 303 306 312 313 317 324 331 327 307 310 295 280 273
236 244 234 254 260 247 249 262 269 270 272 283 286 283 288 291 294 297 299 302 302 300 300 301 301 299 302 303 295 290 290 295 301 305 307 311 317 323 328 341 334 306 291 291
235 238 252 248 250 254 255 267 278 283 281 280 286 293 293 293 297 300 299 300 300 301 302 304 304 300 302 302 297 293 290 293 297 295 298 301 301 300 302 310 319 335 342 325
235 222 231 250 263 269 272 283 293 295 296 297 295 296 297 298 299 299 301 304 305 306 306 308 308 305 304 301 295 289 290 293 293 293 295 295 296 297 297 294 290 304 335 3
235 231 229 238 251 265 275 277 280 288 294 295 297 297 296 294 295 299 303 307 307 306 307 307 304 304 305 297 293 289 285 290 297 294 294 297 297 297 296 291 287 284 288 297
204 231 233 247 254 263 264 266 270 280 289 291 293 298 302 303 304 305 306 306 301 298 301 301 301 307 308 299 290 286 284 287 294 293 289 288 289 287 286 280 271 267 269 262
213 221 222 225 237 261 277 282 283 286 288 291 299 302 303 302 302 304 307 311 311 308 306 305 307 311 308 303 292 282 280 280 281 280 281 282 284 277 270 265 260 255 259 253
200 207 215 224 235 248 267 280 286 290 297 301 304 301 298 298 301 304 308 311 311 310 312 316 315 316 312 312 308 288 282 282 286 284 280 281 282 271 254 245 249 241 208 192
143 150 208 272 279 270 282 290 295 298 300 302 304 304 305 304 304 305 305 298 291 291 300 307 310 308 308 308 309 293 282 278 278 281 280 272 268 267 248 231 222 210 190 178
132 44 324 306 302 303 297 298 299 300 304 304 301 298 299 302 303 303 302 300 302 304 306 308 311 308 307 307 306 290 279 276 274 274 276 274 275 269 239 216 212 188 168 159
132 305 304 308 314 313 311 306 299 300 304 305 303 301 303 306 308 303 289 284 297 308 312 305 305 306 310 307 297 289 282 281 278 273 271 268 261 248 226 206 192 177 162 157
325 308 309 308 304 302 308 307 302 302 299 299 299 300 299 298 299 301 303 303 304 307 310 302 307 312 314 311 302 295 289 284 278 273 270 269 260 232 205 191 177 164 152 149
334 325 315 311 313 312 311 308 307 302 295 293 292 292 294 298 296 286 285 300 308 310 308 306 312 316 317 311 305 297 289 284 276 269 267 267 253 217 192 176 160 149 146 147
319 315 314 318 312 299 296 304 307 305 303 300 297 296 293 285 287 296 299 299 304 311 309 310 315 318 318 310 307 301 292 283 281 276 261 251 226 192 179 172 157 145 145 147
318 302 291 282 278 285 293 299 300 303 307 308 308 306 305 302 298 299 301 302 304 308 310 308 311 314 313 308 304 301 296 296 297 289 271 251 202 177 165 158 153 148 147 144
317 307 306 306 300 292 292 292 294 298 301 302 304 307 309 309 309 309 309 309 310 309 310 310 310 308 307 306 305 303 300 300 297 289 277 247 201 176 168 162 151 144 142 142